Memambetsu, Japan

3:00 AM JST on February 26, 2018 (GMT +0900)
Memanbetsu

Weather History for RJCM - January, 2013

Change the Weather History Date:

Sunday, January 6, 2013

  Actual Average Record
Temperature  
Mean Temperature 19 °F -  
Max Temperature 24 °F 24 °F 37 °F (2015)
Min Temperature 10 °F 9 °F 0 °F (2006)
Degree Days  
Heating Degree Days 46    
Moisture  
Dew Point 11 °F    
Average Humidity 69    
Maximum Humidity 93    
Minimum Humidity 46    
Precipitation  
Precipitation 0.00 in - - ()
Sea Level Pressure  
Sea Level Pressure 29.73 in    
Wind  
Wind Speed 7 mph ()    
Max Wind Speed 14 mph    
Max Gust Speed -    
Visibility 5.1 miles    
Events Snow    
Averages and records for this station are not official NWS values.
T = Trace of Precipitation, MM = Missing Value Source: Averaged Metar Reports

Daily Weather History Graph

Daily Weather History Graph

Search for Another Location

Airport or City:

Trip Planner

Search our weather history database for the weather conditions in past years. The results will help you decide how hot, cold, wet, or windy it might be!

Date:

Astronomy

Jan. 06, 2013 Rise Set
Actual Time 6:57 AM JST 4:00 PM JST
Civil Twilight 6:24 AM JST 4:33 PM JST
Nautical Twilight 5:48 AM JST 5:09 PM JST
Astronomical Twilight 5:14 AM JST 5:44 PM JST
Moon 12:21 AM JST (1/6) 11:08 AM JST (1/6)
Length of Visible Light 10h 08m
Length of Day
9h 03m
Last Quarter, 39% of the Moon is Illuminated
Jan 6
Last Quarter
Jan 12
New
Jan 19
First Quarter
Jan 27
Full
Feb 3
Last Quarter

Hourly Weather History & Observations

Time (JST) Temp. Windchill Dew Point Humidity Pressure Visibility Wind Dir Wind Speed Gust Speed Precip Events Conditions
8:00 AM 24.8 °F - 15.8 °F 69% 29.65 in 6.2 mi Variable 2.3 mph - N/A   Scattered Clouds
9:00 AM 23.0 °F 11.1 °F 19.4 °F 86% 29.68 in 6.2 mi NNW 12.7 mph - N/A Snow Light Snow Showers
9:10 AM 24.8 °F 15.3 °F 17.6 °F 74% 29.68 in - NW 9.2 mph - N/A Snow Light Snow Showers
9:18 AM 24.8 °F 16.1 °F 17.6 °F 74% 29.68 in - WNW 8.1 mph - N/A Snow Light Snow Showers
9:22 AM 23.0 °F 14.7 °F 19.4 °F 86% 29.68 in 0.5 mi WNW 6.9 mph - N/A Snow Snow Showers
9:32 AM 23.0 °F 14.7 °F 17.6 °F 80% 29.68 in 0.3 mi NW 6.9 mph - N/A Snow Snow Showers
10:00 AM 21.2 °F 12.6 °F 19.4 °F 93% 29.68 in 0.6 mi WNW 6.9 mph - N/A Snow Light Snow Showers
10:12 AM 23.0 °F 18.4 °F 17.6 °F 80% 29.71 in 6.2 mi WNW 3.5 mph - N/A Snow Light Snow Showers
11:00 AM 23.0 °F 11.7 °F 14.0 °F 68% 29.68 in 6.2 mi NW 11.5 mph - N/A Snow Light Snow Showers
11:25 AM 21.2 °F 12.6 °F 15.8 °F 80% 29.68 in - NNW 6.9 mph - N/A Snow Light Snow Showers
11:33 AM 21.2 °F 11.7 °F 15.8 °F 80% 29.71 in - NW 8.1 mph - N/A Snow Light Snow Showers
12:00 PM 21.2 °F 10.9 °F 14.0 °F 74% 29.71 in - NW 9.2 mph - N/A Snow Light Snow Showers
12:12 PM 23.0 °F 15.8 °F 14.0 °F 68% 29.71 in 6.2 mi NNW 5.8 mph - N/A Snow Light Snow Showers
1:00 PM 21.2 °F 8.3 °F 12.2 °F 68% 29.71 in 5.0 mi NNW 13.8 mph - N/A Snow Light Snow Showers
2:00 PM 21.2 °F 9.5 °F 6.8 °F 54% 29.74 in 6.2 mi WNW 11.5 mph - N/A   Mostly Cloudy
3:00 PM 19.4 °F 6.0 °F 1.4 °F 46% 29.77 in 6.2 mi NW 13.8 mph - N/A   Scattered Clouds
4:00 PM 17.6 °F 6.4 °F 1.4 °F 49% 29.80 in 6.2 mi NW 9.2 mph - N/A   Scattered Clouds
5:00 PM 15.8 °F 6.1 °F 1.4 °F 53% 29.83 in 6.2 mi NW 6.9 mph - N/A   Scattered Clouds
6:00 PM 14.0 °F 8.2 °F -0.4 °F 53% 29.83 in 6.2 mi West 3.5 mph - N/A   Partly Cloudy
7:00 PM 14.0 °F - 1.4 °F 57% 29.86 in 6.2 mi Variable 2.3 mph - N/A   Partly Cloudy
8:00 PM 10.4 °F 4.0 °F -2.2 °F 57% 29.86 in 6.2 mi West 3.5 mph - N/A   Partly Cloudy